Time,TemperatureF,DewpointF,PressureIn,WindDirection,WindDirectionDegrees,WindSpeedMPH,WindSpeedGustMPH,Humidity,HourlyPrecipIn,Conditions,Clouds,dailyrainin,SoftwareType,DateUTC
2013-04-07 01:02:00,72.5,37.0,29.46,NW,316,0.0,-999.0,27,-99.99,,,0.00,weatherlink.com 1.10,2013-04-07 08:02:00,
2013-04-07 01:39:00,71.6,39.0,29.45,North,349,0.0,-999.0,31,-99.99,,,0.00,weatherlink.com 1.10,2013-04-07 08:39:00,
2013-04-07 01:55:00,71.1,39.0,29.45,NNW,337,0.0,-999.0,31,-99.99,,,0.00,weatherlink.com 1.10,2013-04-07 08:55:00,
2013-04-07 02:10:00,70.8,42.0,29.45,North,359,0.0,-999.0,35,-99.99,,,0.00,weatherlink.com 1.10,2013-04-07 09:10:00,
2013-04-07 02:25:00,70.3,43.0,29.44,North,359,0.0,-999.0,38,-99.99,,,0.00,weatherlink.com 1.10,2013-04-07 09:25:00,
2013-04-07 02:40:00,70.1,45.0,29.44,NNW,347,0.0,-999.0,40,-99.99,,,0.00,weatherlink.com 1.10,2013-04-07 09:40:00,
2013-04-07 02:55:00,69.9,45.0,29.43,North,357,0.0,-999.0,41,-99.99,,,0.00,weatherlink.com 1.10,2013-04-07 09:55:00,
2013-04-07 03:10:00,70.1,46.0,29.43,North,359,0.0,-999.0,42,-99.99,,,0.00,weatherlink.com 1.10,2013-04-07 10:10:00,
2013-04-07 03:25:00,69.9,46.0,29.42,WNW,294,0.0,-999.0,43,-99.99,,,0.00,weatherlink.com 1.10,2013-04-07 10:25:00,
2013-04-07 03:40:00,69.6,47.0,29.42,NW,312,0.0,-999.0,45,-99.99,,,0.00,weatherlink.com 1.10,2013-04-07 10:40:00,
2013-04-07 03:55:00,69.4,47.0,29.41,WNW,298,0.0,-999.0,45,-99.99,,,0.00,weatherlink.com 1.10,2013-04-07 10:55:00,
2013-04-07 04:10:00,69.1,47.0,29.42,North,356,0.0,-999.0,45,-99.99,,,0.00,weatherlink.com 1.10,2013-04-07 11:10:00,
2013-04-07 04:25:00,68.8,47.0,29.41,SW,234,0.0,-999.0,46,-99.99,,,0.00,weatherlink.com 1.10,2013-04-07 11:25:00,
2013-04-07 04:41:00,68.4,48.0,29.41,SW,217,0.0,-999.0,48,-99.99,,,0.00,weatherlink.com 1.10,2013-04-07 11:41:00,
2013-04-07 04:56:00,67.6,48.0,29.41,SW,226,0.0,-999.0,49,-99.99,,,0.00,weatherlink.com 1.10,2013-04-07 11:56:00,
2013-04-07 05:11:00,67.3,47.0,29.42,WSW,247,0.0,-999.0,48,-99.99,,,0.00,weatherlink.com 1.10,2013-04-07 12:11:00,
2013-04-07 05:26:00,66.8,47.0,29.42,SW,219,0.0,-999.0,49,-99.99,,,0.00,weatherlink.com 1.10,2013-04-07 12:26:00,
2013-04-07 05:41:00,66.6,46.0,29.42,SW,217,0.0,-999.0,48,-99.99,,,0.00,weatherlink.com 1.10,2013-04-07 12:41:00,
2013-04-07 05:56:00,66.9,45.0,29.42,WSW,244,0.0,-999.0,46,-99.99,,,0.00,weatherlink.com 1.10,2013-04-07 12:56:00,
2013-04-07 06:11:00,66.1,47.0,29.42,North,359,0.0,-999.0,50,-99.99,,,0.00,weatherlink.com 1.10,2013-04-07 13:11:00,
2013-04-07 06:26:00,65.0,46.0,29.43,North,359,0.0,-999.0,51,-99.99,,,0.00,weatherlink.com 1.10,2013-04-07 13:26:00,
2013-04-07 06:56:00,64.3,47.0,29.44,North,357,0.0,-999.0,53,-99.99,,,0.00,weatherlink.com 1.10,2013-04-07 13:56:00,
2013-04-07 07:26:00,65.8,48.0,29.45,West,281,0.0,-999.0,52,-99.99,,,0.00,weatherlink.com 1.10,2013-04-07 14:26:00,
2013-04-07 08:11:00,70.4,49.0,29.46,North,359,0.0,-999.0,46,-99.99,,,0.00,weatherlink.com 1.10,2013-04-07 15:11:00,
2013-04-07 08:41:00,74.0,49.0,29.46,North,357,2.0,-999.0,41,-99.99,,,0.00,weatherlink.com 1.10,2013-04-07 15:41:00,
2013-04-07 08:56:00,75.3,49.0,29.47,NW,322,0.0,-999.0,39,-99.99,,,0.00,weatherlink.com 1.10,2013-04-07 15:56:00,
2013-04-07 09:26:00,77.9,47.0,29.47,North,359,2.0,-999.0,33,-99.99,,,0.00,weatherlink.com 1.10,2013-04-07 16:26:00,
2013-04-07 09:41:00,79.2,44.0,29.48,North,357,0.0,-999.0,29,-99.99,,,0.00,weatherlink.com 1.10,2013-04-07 16:41:00,
2013-04-07 09:56:00,80.7,45.0,29.48,North,359,0.0,-999.0,28,-99.99,,,0.00,weatherlink.com 1.10,2013-04-07 16:56:00,
2013-04-07 10:26:00,82.2,44.0,29.48,NNW,330,2.0,-999.0,26,-99.99,,,0.00,weatherlink.com 1.10,2013-04-07 17:26:00,
2013-04-07 10:41:00,82.8,41.0,29.48,North,359,0.0,-999.0,23,-99.99,,,0.00,weatherlink.com 1.10,2013-04-07 17:41:00,
2013-04-07 10:56:00,83.8,41.0,29.48,North,357,5.0,-999.0,22,-99.99,,,0.00,weatherlink.com 1.10,2013-04-07 17:56:00,
2013-04-07 11:11:00,84.9,40.0,29.48,North,357,0.0,-999.0,20,-99.99,,,0.00,weatherlink.com 1.10,2013-04-07 18:11:00,
2013-04-07 11:26:00,85.7,39.0,29.48,North,352,1.0,-999.0,19,-99.99,,,0.00,weatherlink.com 1.10,2013-04-07 18:26:00,
2013-04-07 11:41:00,85.7,39.0,29.47,North,357,0.0,-999.0,19,-99.99,,,0.00,weatherlink.com 1.10,2013-04-07 18:41:00,
2013-04-07 12:11:00,87.4,39.0,29.46,North,356,0.0,-999.0,18,-99.99,,,0.00,weatherlink.com 1.10,2013-04-07 19:11:00,
2013-04-07 12:42:00,89.3,42.0,29.43,North,357,2.0,-999.0,19,-99.99,,,0.00,weatherlink.com 1.10,2013-04-07 19:42:00,
2013-04-07 12:56:00,89.7,42.0,29.43,North,357,0.0,-999.0,19,-99.99,,,0.00,weatherlink.com 1.10,2013-04-07 19:56:00,
2013-04-07 13:11:00,90.5,40.0,29.42,North,357,1.0,-999.0,17,-99.99,,,0.00,weatherlink.com 1.10,2013-04-07 20:11:00,
2013-04-07 13:26:00,90.7,40.0,29.41,North,357,0.0,-999.0,17,-99.99,,,0.00,weatherlink.com 1.10,2013-04-07 20:26:00,
2013-04-07 13:42:00,90.7,40.0,29.41,North,357,0.0,-999.0,17,-99.99,,,0.00,weatherlink.com 1.10,2013-04-07 20:42:00,
2013-04-07 14:27:00,92.5,40.0,29.39,North,357,6.0,-999.0,16,-99.99,,,0.00,weatherlink.com 1.10,2013-04-07 21:27:00,
2013-04-07 14:42:00,91.8,40.0,29.38,North,357,7.0,-999.0,16,-99.99,,,0.00,weatherlink.com 1.10,2013-04-07 21:42:00,
2013-04-07 14:57:00,91.0,40.0,29.38,North,357,2.0,-999.0,17,-99.99,,,0.00,weatherlink.com 1.10,2013-04-07 21:57:00,
2013-04-07 15:12:00,91.6,41.0,29.37,North,357,3.0,-999.0,17,-99.99,,,0.00,weatherlink.com 1.10,2013-04-07 22:12:00,
2013-04-07 15:27:00,90.7,40.0,29.36,North,357,5.0,-999.0,17,-99.99,,,0.00,weatherlink.com 1.10,2013-04-07 22:27:00,
2013-04-07 15:42:00,91.2,41.0,29.36,North,357,6.0,-999.0,17,-99.99,,,0.00,weatherlink.com 1.10,2013-04-07 22:42:00,
2013-04-07 15:57:00,90.5,40.0,29.35,North,357,7.0,-999.0,17,-99.99,,,0.00,weatherlink.com 1.10,2013-04-07 22:57:00,
2013-04-07 16:12:00,90.3,40.0,29.35,North,357,5.0,-999.0,17,-99.99,,,0.00,weatherlink.com 1.10,2013-04-07 23:12:00,
2013-04-07 16:27:00,90.3,40.0,29.35,North,357,5.0,-999.0,17,-99.99,,,0.00,weatherlink.com 1.10,2013-04-07 23:27:00,
2013-04-07 16:42:00,90.3,40.0,29.34,NNW,335,3.0,-999.0,17,-99.99,,,0.00,weatherlink.com 1.10,2013-04-07 23:42:00,
2013-04-07 16:57:00,89.3,39.0,29.33,North,356,3.0,-999.0,17,-99.99,,,0.00,weatherlink.com 1.10,2013-04-07 23:57:00,
2013-04-07 17:12:00,89.3,41.0,29.33,North,356,2.0,-999.0,18,-99.99,,,0.00,weatherlink.com 1.10,2013-04-08 00:12:00,
2013-04-07 17:27:00,89.7,39.0,29.32,North,356,2.0,-999.0,17,-99.99,,,0.00,weatherlink.com 1.10,2013-04-08 00:27:00,
2013-04-07 17:42:00,88.8,42.0,29.32,North,357,3.0,-999.0,19,-99.99,,,0.00,weatherlink.com 1.10,2013-04-08 00:42:00,
2013-04-07 18:12:00,87.2,39.0,29.32,North,357,1.0,-999.0,18,-99.99,,,0.00,weatherlink.com 1.10,2013-04-08 01:12:00,
2013-04-07 18:27:00,85.7,41.0,29.32,North,359,1.0,-999.0,21,-99.99,,,0.00,weatherlink.com 1.10,2013-04-08 01:27:00,
2013-04-07 18:42:00,84.1,42.0,29.31,North,359,5.0,-999.0,23,-99.99,,,0.00,weatherlink.com 1.10,2013-04-08 01:42:00,
2013-04-07 18:57:00,83.2,43.0,29.31,North,359,1.0,-999.0,24,-99.99,,,0.00,weatherlink.com 1.10,2013-04-08 01:57:00,
2013-04-07 19:12:00,82.4,43.0,29.30,North,359,0.0,-999.0,25,-99.99,,,0.00,weatherlink.com 1.10,2013-04-08 02:12:00,
2013-04-07 19:27:00,82.2,43.0,29.30,North,352,0.0,-999.0,25,-99.99,,,0.00,weatherlink.com 1.10,2013-04-08 02:27:00,
2013-04-07 19:42:00,81.8,43.0,29.31,North,359,0.0,-999.0,25,-99.99,,,0.00,weatherlink.com 1.10,2013-04-08 02:42:00,
2013-04-07 20:12:00,81.6,40.0,29.30,West,260,2.0,-999.0,23,-99.99,,,0.00,weatherlink.com 1.10,2013-04-08 03:12:00,
2013-04-07 20:27:00,81.1,41.0,29.30,North,359,6.0,-999.0,24,-99.99,,,0.00,weatherlink.com 1.10,2013-04-08 03:27:00,
2013-04-07 20:42:00,80.3,41.0,29.31,North,352,5.0,-999.0,25,-99.99,,,0.00,weatherlink.com 1.10,2013-04-08 03:42:00,
2013-04-07 20:57:00,79.4,42.0,29.31,North,356,2.0,-999.0,26,-99.99,,,0.00,weatherlink.com 1.10,2013-04-08 03:57:00,
2013-04-07 21:12:00,78.6,42.0,29.32,North,357,5.0,-999.0,27,-99.99,,,0.00,weatherlink.com 1.10,2013-04-08 04:12:00,
2013-04-07 21:27:00,78.1,42.0,29.32,North,357,6.0,-999.0,28,-99.99,,,0.00,weatherlink.com 1.10,2013-04-08 04:27:00,
2013-04-07 21:42:00,77.4,42.0,29.32,North,357,3.0,-999.0,28,-99.99,,,0.00,weatherlink.com 1.10,2013-04-08 04:42:00,
2013-04-07 21:57:00,76.8,42.0,29.32,North,357,7.0,-999.0,29,-99.99,,,0.00,weatherlink.com 1.10,2013-04-08 04:57:00,
2013-04-07 22:12:00,76.3,41.0,29.32,NNW,337,2.0,-999.0,28,-99.99,,,0.00,weatherlink.com 1.10,2013-04-08 05:12:00,
2013-04-07 22:27:00,76.1,40.0,29.30,North,359,3.0,-999.0,27,-99.99,,,0.00,weatherlink.com 1.10,2013-04-08 05:27:00,
2013-04-07 22:42:00,76.1,40.0,29.30,North,359,1.0,-999.0,27,-99.99,,,0.00,weatherlink.com 1.10,2013-04-08 05:42:00,
2013-04-07 22:57:00,76.1,40.0,29.30,North,359,3.0,-999.0,27,-99.99,,,0.00,weatherlink.com 1.10,2013-04-08 05:57:00,
2013-04-07 23:12:00,76.3,39.0,29.29,North,359,6.0,-999.0,26,-99.99,,,0.00,weatherlink.com 1.10,2013-04-08 06:12:00,
2013-04-07 23:27:00,76.3,39.0,29.29,North,359,5.0,-999.0,26,-99.99,,,0.00,weatherlink.com 1.10,2013-04-08 06:27:00,
2013-04-07 23:42:00,76.0,38.0,29.28,North,359,3.0,-999.0,25,-99.99,,,0.00,weatherlink.com 1.10,2013-04-08 06:42:00,
2013-04-07 23:57:00,76.0,37.0,29.28,North,359,3.0,-999.0,24,-99.99,,,0.00,weatherlink.com 1.10,2013-04-08 06:57:00,